Search for airport 
image banner adimage banner ad
image banner ad

DAOV - Ghriss

Located in Ghriss, Algeria

ICAO - DAOV, IATA - MUW

Data provided by Airmate  

General information

Coordinates: N35°13'1" E0°8'54"
Elevation is 1686 feet MSL.
 
View others Airports in Mascara Province

Operational data

Open for public use
Current time UTC:
Current local time:
Weather
METAR: DAOV 010100Z 13004KT CAVOK 13/04 Q1025
TAF: TAF DAOV 312300Z 0100/0109 VRB02KT CAVOK
View NOTAMs / SUP AIP / TFR affecting this airport [VIEW]
Communications frequencies: [VIEW]

Runways:

RWY identifierQFULength (ft)Width (ft)SurfaceLDA (ft)
0882°557798ASP
26262°557798

Airport contact information

Address: Ghriss Algeria

Satellite view of DAOV